Погода в Ранино

Россия / Тамбовская область     52°58′26″N   40°15′17″E
темп.,
°C
ветер,
м/с
пор.,
м/с
влажн.,
%
обл.,
%
осадки,
мм/ч
давл.,
гПа
погр.,
м
18 октября, пн
пн1800:00+5з238240 0.0 101553
03:00+5з228668 0.0 101528
06:00+7з3762100 0.0 1014287
09:00+7юз3761100 0.0 1014419
12:00+10з684787 0.0 10131496
15:00+9з586296 0.1 10121326
18:00+7з3872100 0.1 1013343
21:00+7зсз3774100 0.1 1014791
19 октября, вт
вт1900:00+4з2588100 0.0 1014152
03:00+4з2687100 0.0 1014181
06:00+3зсз268798 0.0 1015165
09:00+4сз367385 0.0 1015402
12:00+7сз465751 0.0 10151319
15:00+5сз465999 0.1 10151339
18:00+4сз4773100 0.1 1017786
21:00+2сз2678100 0.3 1018196
20 октября, ср
ср2000:00+2зсз3786100 0.1 1018522
03:00+1сз379698 0.1 1019477
06:00+1ссз5893100 0.2 1021670
09:00+2ссз3679100 0.3 1022546
12:00+3сз4566100 0.0 10241059
15:00+4з346266 0.0 10241026
18:00+2ююз227394 0.0 102436
21:00+1ююз2672100 0.0 1023126
21 октября, чт
чт2100:00+2ююз41162100 0.0 1021348
03:00+3ююз51452100 0.0 1018517
06:00+3ююз71678100 1.1 1015701
09:00+6юз61581100 1.9 1014721
12:00+10юз6146798 0.0 1011748
15:00+12юз61570100 0.0 1010802
18:00+11юз61673100 0.0 1010683
21:00+11юз71674100 0.0 1009681
22 октября, пт
пт2200:00+11юз71670100 0.0 1007764
03:00+11юз71667100 0.0 1006793
06:00+10юз61570100 0.0 1006715
09:00+11юз61373100 0.0 1007721
12:00+14зюз6126494 0.0 1007938
15:00+14зюз6125994 0.0 10081063
18:00+12зюз4126833 0.0 1011541
21:00+10зюз310805 0.0 1012280